SCP
0 0 0 0 0 0 0 0 0 -0 -0 -0 -0 -0 -0 -0 -0 -0 -0 -0 -0 -0 -0 -0 -0 -0 -0 -0 -0 -0 -0 -0 -0 -0 -0 -0 -0 -0 -0 -0 -0 -0 -0
0 0 0 0 0 0 0 0 0 -0 -0 -0 -0 -0 -0 -0 -0 -0 -0 -0 -0 -0 -0 -0 -0 -0 -0 -0 -0 -0 -0 -0 -0 -0 -0 -0 -0 -0 -0 -0 -0 -0 -0
-0 0 0 0 0 0 0 0 -0 -0 -0 -0 -0 -0 -0 -0 -0 -0 -0 -0 -0 -0 -0 -0 -0 -0 -0 -0 -0 -0 -0 -0 -0 -0 -0 0 -0 -0 -0 -0 -0 -0 -0
-0 0 0 0 0 0 0 0 -0 -0 -0 -0 -0 -0 -0 -0 -0 -0 -0 -0 -0 -0 -0 -0 -0 -0 -0 -0 -0 -0 -0 0 0 0 0 0 -0 -0 -0 -0 -0 -0 -0
-0 0 -0 0 0 0 0 -0 -0 -0 -0 -0 -0 -0 -0 -0 -0 -0 -0 -0 -0 -0 -0 -0 -0 -0 -0 -0 -0 -0 -0 0 0 -0 0 0 0 -0 -0 -0 -0 -0 -0
-0 -0 -0 0 0 0 0 -0 -0 -0 -0 -0 -0 -0 -0 -0 -0 -0 -0 -0 -0 -0 -0 -0 -0 -0 -0 -0 -0 -0 -0 0 0 -0 0 0 0 -0 -0 -0 -0 -0 -0
-0 -0 -0 0 0 0 0 -0 -0 -0 -0 -0 -0 -0 -0 -0 -0 -0 -0 -0 -0 -0 -0 -0 -0 -0 -0 -0 -0 -0 0 0 -0 0 0 0 0 0 0 -0 0 -0 0
-0 -0 -0 0 0 0 0 -0 -0 -0 -0 -0 -0 -0 -0 -0 -0 -0 -0 -0 -0 -0 -0 -0 -0 -0 -0 0 0 0 0 0 0 0 0 0 0 0 0 0 0 0 0
-0 -0 -0 -0 0 0 0 -0 -0 -0 -0 -0 -0 -0 -0 -0 -0 0 -0 -0 -0 -0 -0 -0 -0 -0 0 0 0 0 0 0 0 0 0 0 0 0 0 0 0 0 0
-0 -0 -0 -0 -0 -0 -0 0 -0 -0 -0 -0 -0 -0 -0 -0 -0 0 0 0 -0 -0 -0 0 0 0 0 0 0 0 -0 0 0 0 0 0 0 0 0 0 0 0 0
-0 -0 -0 -0 -0 -0 -0 -0 -0 -0 -0 -0 -0 -0 -0 -0 -0 0 -0 0 -0 -0 -0 0 0 0 0 0 0 -0 -0 0 0 0 0 0 0 0 0 0 0 0 0
-0 -0 -0 -0 -0 -0 -0 -0 -0 -0 -0 -0 -0 -0 0 0 0 -0 -0 -0 -0 -0 0 0 0 0 0 0 0 0 0 0 0 0 0 0 0 0 0 0 0 0 0
-0 -0 -0 -0 -0 -0 -0 -0 0 0 0 0 -0 0 0 0 0 0 0 0 0 0 0 0 0 0 0 0 0 0 0 0 0 0 0 0 0 0 0 0 0 0 0
-0 -0 -0 -0 -0 -0 -0 -0 -0 0 0 0 0 0 0 0 0 0 0 0 0 0 0 0 0 0 0 0 0 0 0 0 0 0 0 0 0 0 0 0 0 0 0
-0 -0 -0 -0 -0 -0 -0 -0 -0 -0 0 0 0 0 0 0 0 0 0 0 0 0 0 0 0 0 0 0 0 0 0 0 0 0 0 0 0 0 0 0 0 0 0
-0 -0 -0 -0 -0 -0 0 -0 0 0 0 0 0 0 0 0 0 0 0 0 0 0 0 0 0 0 0 0 0 0 0 0 0 0 0 0 0 0 0 0 0 0 0
0 -0 -0 -0 0 -0 0 0 0 0 0 0 0 0 0 0 0 0 0 0 0 0 0 0 0 0 0 0 0 0 0 0 0 0 0 0 0 0 0 0 0 0 0
0 0 0 0 0 0 0 0 0 0 0 0 0 0 0 0 0 0 0 0 0 0 0 0 0 0 0 0 0 0 0 0 0 0 0 0 0 0 0 0 0 0 0
0 0 0 0 0 0 0 0 0 0 0 0 0 0 0 0 0 0 0 0 0 0 0 0 0 0 0 0 0 0 0 0 0 0 0 0 0 0 0 0 0 0 0
0 0 0 0 0 0 0 0 0 0 0 0 0 0 0 0 0 0 0 0 0 0 0 0 0 0 0 0 0 0 0 0 0 0 0 0 0 0 0 0 0 0 0
0 0 0 0 0 0 0 0 0 0 0 0 0 0 0 0 0 0 0 0 0 0 0 0 0 0 0 0 0 0 0 0 0 0 0 0 0 0 0 0 0 0 0
0 0 0 0 0 0 0 0 0 0 0 0 0 0 0 0 0 0 0 0 0 0 0 0 0 0 0 0 0 0 0 0 0 0 0 0 0 0 0 0 0 0 0
0 0 0 0 0 0 0 0 0 0 0 0 0 0 0 0 0 0 0 0 0 0 0 0 0 0 0 0 0 0 0 0 0 0 0 0 0 0 0 0 0 0 0
0 0 0 0 0 0 1 0 0 0 0 0 0 0 0 0 0 0 0 0 0 0 0 0 0 0 0 0 0 0 0 0 0 0 0 0 0 0 0 0 0 0 0
0 0 0 0 0 0 0 1 0 0 0 0 0 0 0 0 0 0 0 0 0 0 0 0 0 0 0 0 0 0 0 0 0 0 0 0 0 0 0 0 0 0 0
0 0 0 0 0 0 0 0 0 0 0 0 0 0 0 0 0 0 0 0 0 0 0 0 0 0 0 0 0 0 0 0 0 0 0 0 0 0 0 0 0 0 0
Wind_Speed_500mb
24 21 18 15 17 19 25 28 21 19 19 23 29 34 33 32 31 23 22 24 30 31 23 18 22 25 27 32 33 35 39 41 44 40 39 38 36 34 34 31 32 35 35
32 25 20 17 17 19 26 29 21 16 23 27 29 30 31 34 34 28 21 27 30 32 28 24 22 25 29 30 30 31 31 33 35 31 29 28 27 21 25 28 32 34 33
33 27 21 19 18 20 25 28 20 17 24 27 28 30 29 33 31 25 26 30 29 26 23 25 25 23 22 19 17 20 24 28 27 26 30 34 32 32 37 39 36 33 28
31 27 22 20 19 19 23 25 22 18 24 26 26 26 25 26 31 26 28 30 27 29 27 26 25 23 19 19 20 22 25 26 30 30 34 33 32 27 29 33 31 24 19
29 27 24 22 20 19 22 24 23 16 21 24 24 23 21 26 32 24 27 29 32 34 30 30 29 28 26 27 28 29 29 32 34 23 21 21 24 19 21 19 24 23 22
30 27 26 23 21 20 20 24 22 14 16 19 21 21 20 24 29 27 25 24 24 31 29 32 32 28 30 29 30 29 25 37 25 20 25 18 17 11 13 12 9 17 14
31 29 28 24 21 20 19 22 19 14 15 16 19 19 18 22 24 28 20 22 18 24 24 28 23 26 27 30 30 29 29 33 16 24 24 18 17 11 4 2 7 9 18
30 30 29 26 22 20 19 18 16 13 13 14 16 16 15 18 20 19 20 19 20 26 25 22 21 24 25 25 25 25 28 34 23 21 19 17 15 16 13 15 19 19 19
32 32 30 28 26 23 21 18 15 12 12 11 12 13 12 14 17 16 18 14 18 19 21 19 20 20 20 20 21 23 25 32 21 19 13 11 15 12 12 14 18 16 18
32 32 28 30 29 27 24 21 16 12 12 10 9 10 10 11 13 11 12 17 18 19 20 18 17 17 16 17 19 22 28 29 18 14 15 17 10 9 14 10 9 14 18
38 35 33 30 29 28 27 25 21 17 15 12 10 9 8 9 12 12 11 13 16 17 17 16 15 14 12 12 16 20 25 17 9 16 12 14 11 8 5 7 15 11 14
47 41 40 35 33 30 28 28 26 22 18 15 12 11 11 13 13 11 13 12 13 13 13 12 11 11 11 10 13 18 13 17 3 11 12 12 11 5 3 4 10 11 11
48 49 47 43 37 36 30 31 27 26 23 20 17 15 15 16 16 15 14 14 14 13 10 9 8 7 6 6 7 9 12 11 6 11 10 9 7 4 1 9 6 11 13
50 50 50 46 45 41 34 33 30 27 26 24 21 19 17 17 19 18 15 15 16 13 12 8 4 3 4 3 4 4 8 8 7 5 3 3 7 3 5 6 5 9 11
49 51 52 52 51 47 42 35 33 32 31 27 25 23 20 20 20 20 19 18 18 15 14 9 4 2 2 4 5 4 3 1 1 2 4 2 2 4 3 6 7 10 10
40 49 50 52 52 51 50 42 39 36 35 35 31 28 26 24 23 22 21 20 19 16 14 11 9 8 8 11 12 12 11 11 11 10 13 7 8 6 7 8 9 8 12
42 39 46 48 49 47 52 49 44 39 40 40 36 34 33 31 29 26 23 22 20 18 16 16 15 15 17 18 20 21 21 20 21 20 17 17 13 15 14 14 15 13 16
43 44 41 45 46 47 45 50 49 46 44 44 41 40 37 36 35 33 31 27 23 19 20 21 21 24 25 24 27 28 31 29 30 28 29 24 23 22 22 23 24 20 22
44 44 47 48 48 49 48 49 49 51 48 43 46 47 44 44 42 39 37 37 34 28 26 29 29 35 34 35 35 36 37 37 37 36 37 37 34 33 30 29 30 31 29
46 46 47 50 52 51 53 55 57 56 56 48 48 48 46 43 48 49 46 44 41 42 41 43 45 46 46 44 44 47 46 48 48 47 45 44 45 44 43 43 39 36 37
48 49 52 54 55 55 62 65 68 69 64 61 57 52 51 51 47 46 53 54 50 46 55 55 55 56 56 52 54 55 55 57 59 54 53 55 54 53 53 55 52 48 46
51 57 57 58 57 64 69 70 70 69 70 66 64 63 62 59 57 53 49 50 51 54 59 63 63 64 64 64 64 54 52 55 62 60 60 65 61 61 61 62 63 62 57
50 54 56 58 65 64 70 68 69 68 70 73 74 71 70 68 69 63 59 60 58 63 68 69 66 68 71 76 71 58 21 27 40 46 51 53 52 53 56 64 67 70 71
53 58 61 61 64 66 66 71 76 79 73 80 77 73 69 68 70 68 66 69 69 73 73 71 77 78 71 81 81 79 77 67 35 20 28 44 49 55 57 57 63 68 71
55 60 61 62 67 73 75 78 71 79 79 70 70 67 66 62 67 66 64 62 62 62 62 69 66 69 66 83 83 85 76 74 78 77 71 72 73 62 67 67 65 62 71
40 44 45 51 57 57 68 73 73 71 73 66 66 68 61 59 56 57 54 52 57 54 57 62 62 64 73 67 68 63 67 72 70 67 71 83 87 85 83 81 84 75 69
Wind_Direction_500mb
142 155 138 116 110 105 102 98 92 67 65 68 83 102 99 94 90 93 81 91 130 110 104 104 101 95 97 97 95 92 90 88 85 83 85 85 82 83 78 70 68 68 74
145 155 139 120 112 109 110 105 102 70 58 69 84 105 95 98 93 83 71 86 112 125 110 105 103 104 104 100 98 97 96 90 88 81 78 77 76 64 64 65 72 81 87
142 157 141 126 118 113 113 115 109 74 58 68 78 92 90 98 88 82 74 75 89 104 108 97 98 100 106 96 85 82 89 91 88 85 81 74 70 77 83 87 90 91 89
148 150 146 132 124 117 117 122 111 91 74 69 76 90 92 92 95 82 78 80 79 85 88 95 93 92 95 92 88 88 92 98 79 69 73 80 84 86 96 99 98 93 86
150 158 151 141 133 124 120 126 118 105 79 73 76 82 89 90 96 97 86 88 83 81 83 86 88 91 93 94 92 89 90 89 76 70 86 81 82 90 94 101 101 90 87
159 158 157 148 141 131 127 128 119 121 92 81 77 81 83 90 100 89 88 92 99 94 89 85 89 91 95 91 87 83 81 79 81 98 92 84 82 81 112 98 73 91 78
156 178 161 154 148 140 137 138 133 122 103 86 77 80 77 85 102 110 104 99 98 102 106 106 96 90 84 86 82 72 79 89 89 101 91 86 72 70 92 71 100 95 90
164 175 166 162 159 154 151 150 147 128 110 91 81 82 81 82 98 120 114 113 106 103 107 107 94 91 86 80 70 63 81 86 57 68 74 69 38 29 41 79 90 89 97
174 165 172 173 169 168 165 162 163 149 127 105 88 85 86 79 94 113 120 117 109 109 111 103 96 90 82 73 61 60 79 97 84 74 54 51 22 31 71 91 98 101 102
179 171 175 180 179 179 177 175 176 166 145 132 111 104 101 95 103 112 114 119 119 110 115 111 100 89 78 66 54 63 77 75 70 80 71 47 52 47 97 111 95 101 107
180 183 174 184 180 187 188 185 183 184 170 164 155 141 133 128 125 123 132 120 119 116 111 104 92 84 74 62 61 71 77 80 86 83 58 72 60 69 117 111 111 118 109
192 190 183 187 182 187 193 194 195 194 190 189 183 172 154 158 158 173 156 139 131 122 109 100 91 85 69 58 62 64 80 82 44 94 74 78 71 66 63 119 141 130 131
202 200 199 194 191 195 195 199 203 201 200 201 198 191 186 189 185 188 172 160 149 139 138 125 107 89 102 102 88 107 84 88 16 98 100 89 71 57 301 135 141 134 123
209 212 212 208 203 205 205 205 209 207 208 209 209 207 203 197 190 191 186 180 170 170 164 159 137 109 82 87 59 96 99 100 112 320 108 65 95 55 86 169 147 154 155
215 216 218 217 216 212 213 209 212 213 218 219 218 214 210 204 199 200 201 199 193 187 185 184 179 203 296 319 334 319 320 300 296 264 308 248 192 95 148 227 169 179 189
220 218 220 220 221 222 221 219 220 219 225 224 225 223 217 212 207 206 209 208 207 205 208 214 224 244 269 284 287 296 298 295 293 292 308 289 259 244 214 235 196 213 227
216 218 220 219 220 224 228 223 223 228 228 229 230 231 225 221 218 216 214 213 211 218 229 239 248 260 270 279 288 290 289 286 286 279 273 283 278 253 253 244 251 219 236
213 213 214 222 220 223 225 226 225 228 231 232 232 233 236 233 229 227 227 227 226 233 244 256 271 271 275 276 281 278 276 278 282 278 278 272 264 264 252 252 251 247 239
216 214 214 217 229 228 228 231 231 231 234 232 232 235 233 234 236 238 238 237 239 242 254 262 263 266 263 266 262 266 268 273 274 274 275 274 272 264 260 259 254 256 251
218 216 218 220 228 231 231 232 235 234 233 233 235 237 239 239 234 238 240 246 248 253 255 255 254 256 260 259 261 265 269 270 268 268 270 270 271 269 266 265 263 265 257
222 220 218 221 224 224 233 231 232 237 236 236 238 241 241 242 240 240 239 243 248 255 256 256 259 264 264 262 262 264 266 269 269 271 276 273 269 268 267 266 266 262 261
231 232 230 227 226 233 238 240 241 242 244 243 243 241 242 243 244 243 242 247 250 257 259 260 261 262 264 261 261 262 265 272 271 276 272 272 268 268 266 267 265 267 263
235 238 240 240 235 230 244 240 238 244 248 246 246 244 240 242 246 246 247 250 256 256 260 263 264 266 271 267 264 255 246 248 260 270 274 267 269 273 282 278 269 265 262
237 241 240 240 237 235 232 242 236 236 235 243 248 249 248 246 248 249 251 253 257 260 264 268 272 276 265 269 264 256 252 259 267 283 285 280 279 274 272 281 274 268 266
244 244 244 243 243 239 234 239 238 235 238 242 247 249 252 249 250 253 258 259 264 266 265 273 275 281 274 271 275 273 268 270 268 269 279 285 276 275 280 284 274 281 279
241 241 241 240 239 240 235 233 238 239 234 232 237 245 250 251 251 251 253 261 262 263 268 277 281 282 286 280 283 283 280 271 275 279 278 285 281 283 288 287 283 283 286
Wind_Speed_850mb
24 21 18 15 17 19 25 28 21 19 19 23 29 34 33 32 31 23 22 24 30 31 23 18 22 25 27 32 33 35 39 41 44 40 39 38 36 34 34 31 32 35 35
32 25 20 17 17 19 26 29 21 16 23 27 29 30 31 34 34 28 21 27 30 32 28 24 22 25 29 30 30 31 31 33 35 31 29 28 27 21 25 28 32 34 33
33 27 21 19 18 20 25 28 20 17 24 27 28 30 29 33 31 25 26 30 29 26 23 25 25 23 22 19 17 20 24 28 27 26 30 34 32 32 37 39 36 33 28
31 27 22 20 19 19 23 25 22 18 24 26 26 26 25 26 31 26 28 30 27 29 27 26 25 23 19 19 20 22 25 26 30 30 34 33 32 27 29 33 31 24 19
29 27 24 22 20 19 22 24 23 16 21 24 24 23 21 26 32 24 27 29 32 34 30 30 29 28 26 27 28 29 29 32 34 23 21 21 24 19 21 19 24 23 22
30 27 26 23 21 20 20 24 22 14 16 19 21 21 20 24 29 27 25 24 24 31 29 32 32 28 30 29 30 29 25 37 25 20 25 18 17 11 13 12 9 17 14
31 29 28 24 21 20 19 22 19 14 15 16 19 19 18 22 24 28 20 22 18 24 24 28 23 26 27 30 30 29 29 33 16 24 24 18 17 11 4 2 7 9 18
30 30 29 26 22 20 19 18 16 13 13 14 16 16 15 18 20 19 20 19 20 26 25 22 21 24 25 25 25 25 28 34 23 21 19 17 15 16 13 15 19 19 19
32 32 30 28 26 23 21 18 15 12 12 11 12 13 12 14 17 16 18 14 18 19 21 19 20 20 20 20 21 23 25 32 21 19 13 11 15 12 12 14 18 16 18
32 32 28 30 29 27 24 21 16 12 12 10 9 10 10 11 13 11 12 17 18 19 20 18 17 17 16 17 19 22 28 29 18 14 15 17 10 9 14 10 9 14 18
38 35 33 30 29 28 27 25 21 17 15 12 10 9 8 9 12 12 11 13 16 17 17 16 15 14 12 12 16 20 25 17 9 16 12 14 11 8 5 7 15 11 14
47 41 40 35 33 30 28 28 26 22 18 15 12 11 11 13 13 11 13 12 13 13 13 12 11 11 11 10 13 18 13 17 3 11 12 12 11 5 3 4 10 11 11
48 49 47 43 37 36 30 31 27 26 23 20 17 15 15 16 16 15 14 14 14 13 10 9 8 7 6 6 7 9 12 11 6 11 10 9 7 4 1 9 6 11 13
50 50 50 46 45 41 34 33 30 27 26 24 21 19 17 17 19 18 15 15 16 13 12 8 4 3 4 3 4 4 8 8 7 5 3 3 7 3 5 6 5 9 11
49 51 52 52 51 47 42 35 33 32 31 27 25 23 20 20 20 20 19 18 18 15 14 9 4 2 2 4 5 4 3 1 1 2 4 2 2 4 3 6 7 10 10
40 49 50 52 52 51 50 42 39 36 35 35 31 28 26 24 23 22 21 20 19 16 14 11 9 8 8 11 12 12 11 11 11 10 13 7 8 6 7 8 9 8 12
42 39 46 48 49 47 52 49 44 39 40 40 36 34 33 31 29 26 23 22 20 18 16 16 15 15 17 18 20 21 21 20 21 20 17 17 13 15 14 14 15 13 16
43 44 41 45 46 47 45 50 49 46 44 44 41 40 37 36 35 33 31 27 23 19 20 21 21 24 25 24 27 28 31 29 30 28 29 24 23 22 22 23 24 20 22
44 44 47 48 48 49 48 49 49 51 48 43 46 47 44 44 42 39 37 37 34 28 26 29 29 35 34 35 35 36 37 37 37 36 37 37 34 33 30 29 30 31 29
46 46 47 50 52 51 53 55 57 56 56 48 48 48 46 43 48 49 46 44 41 42 41 43 45 46 46 44 44 47 46 48 48 47 45 44 45 44 43 43 39 36 37
48 49 52 54 55 55 62 65 68 69 64 61 57 52 51 51 47 46 53 54 50 46 55 55 55 56 56 52 54 55 55 57 59 54 53 55 54 53 53 55 52 48 46
51 57 57 58 57 64 69 70 70 69 70 66 64 63 62 59 57 53 49 50 51 54 59 63 63 64 64 64 64 54 52 55 62 60 60 65 61 61 61 62 63 62 57
50 54 56 58 65 64 70 68 69 68 70 73 74 71 70 68 69 63 59 60 58 63 68 69 66 68 71 76 71 58 21 27 40 46 51 53 52 53 56 64 67 70 71
53 58 61 61 64 66 66 71 76 79 73 80 77 73 69 68 70 68 66 69 69 73 73 71 77 78 71 81 81 79 77 67 35 20 28 44 49 55 57 57 63 68 71
55 60 61 62 67 73 75 78 71 79 79 70 70 67 66 62 67 66 64 62 62 62 62 69 66 69 66 83 83 85 76 74 78 77 71 72 73 62 67 67 65 62 71
40 44 45 51 57 57 68 73 73 71 73 66 66 68 61 59 56 57 54 52 57 54 57 62 62 64 73 67 68 63 67 72 70 67 71 83 87 85 83 81 84 75 69
Wind_Direction_850mb
142 155 138 116 110 105 102 98 92 67 65 68 83 102 99 94 90 93 81 91 130 110 104 104 101 95 97 97 95 92 90 88 85 83 85 85 82 83 78 70 68 68 74
145 155 139 120 112 109 110 105 102 70 58 69 84 105 95 98 93 83 71 86 112 125 110 105 103 104 104 100 98 97 96 90 88 81 78 77 76 64 64 65 72 81 87
142 157 141 126 118 113 113 115 109 74 58 68 78 92 90 98 88 82 74 75 89 104 108 97 98 100 106 96 85 82 89 91 88 85 81 74 70 77 83 87 90 91 89
148 150 146 132 124 117 117 122 111 91 74 69 76 90 92 92 95 82 78 80 79 85 88 95 93 92 95 92 88 88 92 98 79 69 73 80 84 86 96 99 98 93 86
150 158 151 141 133 124 120 126 118 105 79 73 76 82 89 90 96 97 86 88 83 81 83 86 88 91 93 94 92 89 90 89 76 70 86 81 82 90 94 101 101 90 87
159 158 157 148 141 131 127 128 119 121 92 81 77 81 83 90 100 89 88 92 99 94 89 85 89 91 95 91 87 83 81 79 81 98 92 84 82 81 112 98 73 91 78
156 178 161 154 148 140 137 138 133 122 103 86 77 80 77 85 102 110 104 99 98 102 106 106 96 90 84 86 82 72 79 89 89 101 91 86 72 70 92 71 100 95 90
164 175 166 162 159 154 151 150 147 128 110 91 81 82 81 82 98 120 114 113 106 103 107 107 94 91 86 80 70 63 81 86 57 68 74 69 38 29 41 79 90 89 97
174 165 172 173 169 168 165 162 163 149 127 105 88 85 86 79 94 113 120 117 109 109 111 103 96 90 82 73 61 60 79 97 84 74 54 51 22 31 71 91 98 101 102
179 171 175 180 179 179 177 175 176 166 145 132 111 104 101 95 103 112 114 119 119 110 115 111 100 89 78 66 54 63 77 75 70 80 71 47 52 47 97 111 95 101 107
180 183 174 184 180 187 188 185 183 184 170 164 155 141 133 128 125 123 132 120 119 116 111 104 92 84 74 62 61 71 77 80 86 83 58 72 60 69 117 111 111 118 109
192 190 183 187 182 187 193 194 195 194 190 189 183 172 154 158 158 173 156 139 131 122 109 100 91 85 69 58 62 64 80 82 44 94 74 78 71 66 63 119 141 130 131
202 200 199 194 191 195 195 199 203 201 200 201 198 191 186 189 185 188 172 160 149 139 138 125 107 89 102 102 88 107 84 88 16 98 100 89 71 57 301 135 141 134 123
209 212 212 208 203 205 205 205 209 207 208 209 209 207 203 197 190 191 186 180 170 170 164 159 137 109 82 87 59 96 99 100 112 320 108 65 95 55 86 169 147 154 155
215 216 218 217 216 212 213 209 212 213 218 219 218 214 210 204 199 200 201 199 193 187 185 184 179 203 296 319 334 319 320 300 296 264 308 248 192 95 148 227 169 179 189
220 218 220 220 221 222 221 219 220 219 225 224 225 223 217 212 207 206 209 208 207 205 208 214 224 244 269 284 287 296 298 295 293 292 308 289 259 244 214 235 196 213 227
216 218 220 219 220 224 228 223 223 228 228 229 230 231 225 221 218 216 214 213 211 218 229 239 248 260 270 279 288 290 289 286 286 279 273 283 278 253 253 244 251 219 236
213 213 214 222 220 223 225 226 225 228 231 232 232 233 236 233 229 227 227 227 226 233 244 256 271 271 275 276 281 278 276 278 282 278 278 272 264 264 252 252 251 247 239
216 214 214 217 229 228 228 231 231 231 234 232 232 235 233 234 236 238 238 237 239 242 254 262 263 266 263 266 262 266 268 273 274 274 275 274 272 264 260 259 254 256 251
218 216 218 220 228 231 231 232 235 234 233 233 235 237 239 239 234 238 240 246 248 253 255 255 254 256 260 259 261 265 269 270 268 268 270 270 271 269 266 265 263 265 257
222 220 218 221 224 224 233 231 232 237 236 236 238 241 241 242 240 240 239 243 248 255 256 256 259 264 264 262 262 264 266 269 269 271 276 273 269 268 267 266 266 262 261
231 232 230 227 226 233 238 240 241 242 244 243 243 241 242 243 244 243 242 247 250 257 259 260 261 262 264 261 261 262 265 272 271 276 272 272 268 268 266 267 265 267 263
235 238 240 240 235 230 244 240 238 244 248 246 246 244 240 242 246 246 247 250 256 256 260 263 264 266 271 267 264 255 246 248 260 270 274 267 269 273 282 278 269 265 262
237 241 240 240 237 235 232 242 236 236 235 243 248 249 248 246 248 249 251 253 257 260 264 268 272 276 265 269 264 256 252 259 267 283 285 280 279 274 272 281 274 268 266
244 244 244 243 243 239 234 239 238 235 238 242 247 249 252 249 250 253 258 259 264 266 265 273 275 281 274 271 275 273 268 270 268 269 279 285 276 275 280 284 274 281 279
241 241 241 240 239 240 235 233 238 239 234 232 237 245 250 251 251 251 253 261 262 263 268 277 281 282 286 280 283 283 280 271 275 279 278 285 281 283 288 287 283 283 286